Weather in Priupskiy

Russia / Tula Oblast     53°54′33″N   37°44′09″E
temp.,
°C
wind,
m/s
gust,
m/s
humid.,
%
clouds,
%
prec.,
mm/h
press.,
hPa
HPBL,
m
8 may, sat
sat800:00+7sse497425 0.0 1013146
03:00+9sse61567100 0.0 1012547
06:00+8sse71584100 0.9 1010796
09:00+9sse101891100 4.9 1008938
12:00+9sse101893100 2.3 1006848
15:00+10sse91693100 7.8 1003960
18:00+10s81494100 5.8 1001840
21:00+9sw71194100 5.9 1002534
9 may, sun
sun900:00+8sw359790 0.1 1003309
03:00+6nw91296100 2.9 1005787
06:00+3nw81497100 7.3 1009936
09:00+5nw8118096 7.8 1012923
12:00+5nw71079100 0.1 10161209
15:00+6nw61074100 0.1 10181260
18:00+9nnw59655 0.0 10201485
21:00+5wnw47775 0.0 1022117
10 may, mon
mon1000:00+4nw37803 0.0 1024110
03:00+3nnw37810 0.0 1026118
06:00+3n37760 0.0 1029159
09:00+9n57540 0.0 1029664
12:00+12nne57455 0.0 10291491
15:00+14nne67468 0.0 10291536
18:00+12nne58580 0.0 1028895
21:00+8nne48725 0.0 1029134
11 may, tue
tue1100:00+6ne410742 0.0 1030182
03:00+5ne411800 0.0 1030187
06:00+5ne514730 0.0 1030350
09:00+11ene713580 0.0 1029710
12:00+14ene710535 0.0 1028906
15:00+16ene7957100 0.0 1027974
18:00+15e596972 0.0 1027856
21:00+12ne4118280 0.0 1026298
12 may, wed
wed1200:00+11ene6148210 0.0 1025382
03:00+9ene5129298 0.0 1024288
06:00+10ene51292100 0.0 1024417
09:00+11ene5993100 0.3 1023420
12:00+11e479594 1.9 1024366
15:00+14ese4788100 2.1 1023709
18:00+13e3896100 0.4 1022352
21:00+13ene399880 0.8 1020293